Tracking 19832 objects as of 25-Aug-2019
HD Live streaming from Space Station
objects crossing your sky now

TANSEI 3 DEB

Track TANSEI 3 DEB now!
10-day predictions


NORAD ID: 9982
Int'l Code: 1977-012F
Perigee: 785.9 km
Apogee: 3,759.6 km
Inclination: 65.9 °
Period: 133.3 minutes
Semi major axis: 8643 km
RCS: 0.0721 m2 (small)
Launch date: February 19, 1977
Source: Japan (JPN)
Launch site: KAGOSHIMA SPACE CENTER UNIVERSITY OF TOKYO (KSCUT)

Note: This is SATELLITE DEBRIS
aabbcc
Your satellite tracking list
Your tracking list is empty




NASA's NSSDC Master Catalog

Two Line Element Set (TLE):
1  9982U 77012F   19236.44860175 -.00000161 +00000-0 -31181-3 0  9998
2  9982 065.9040 176.3890 1720119 295.3818 047.8968 10.80316281677366
Source of the keplerian elements: AFSPC